Home   Weather   Valletta   Past weeks
Flag for Malta

Past Weather in Valletta, Malta — Yesterday and Last 2 Weeks

Now
84 °F

Passing clouds.


Feels Like: 92 °F
Forecast: 81 / 74 °F
Wind: 9 mph from South

Location: Luqa

Current Time: Sep 23, 2019 at 2:01:04 pm

Latest Report: Sep 23, 2019 at 1:15 pm


Visibility: N/A

Pressure: 30.01 "Hg

Humidity: 74%

Dew Point: 75 °F

Location of VallettaLocation

Past Weather in Valletta — Graph

°F

Valletta Temperature Yesterday

Maximum temperature yesterday: 81 °F (at 1:15 pm)
Minimum temperature yesterday: 72 °F (at 4:15 am)
Average temperature yesterday: 77 °F

High & Low Weather Summary for the Past Weeks

 TemperatureHumidityPressure
High84 °F (Sep 8, 1:15 pm)100% (Sep 13, 4:15 am)30.27 "Hg (Sep 13, 4:15 am)
Low66 °F (Sep 11, 1:05 am)43% (Sep 13, 1:15 pm)29.86 "Hg (Sep 10, 5:15 pm)
Average77 °F78%30.09 "Hg
* Reported Sep 8 12:15 pm — Sep 23 12:45 pm, Valletta. Weather by CustomWeather, © 2019

Note: Actual official high and low records may vary slightly from our data, if they occured in-between our weather recording intervals... More about our weather records

Advertising

Valletta Weather History for the Previous 24 Hours

Scroll right to see more
 ConditionsComfort  
Time TempWeatherWind HumidityBarometerVisibility
12:45 pm
Mon, Sep 23
84 °FScattered clouds.8 mph74%30.04 "HgN/A
12:15 pm82 °FPartly sunny.12 mph79%30.04 "HgN/A
11:45 am82 °FPartly sunny.14 mph79%30.04 "HgN/A
11:15 am82 °FPartly sunny.9 mph79%30.07 "HgN/A
10:45 am82 °FPartly sunny.8 mph79%30.07 "HgN/A
10:15 am82 °FScattered clouds.7 mph79%30.07 "HgN/A
9:45 am81 °FScattered clouds.9 mph84%30.07 "HgN/A
9:15 am81 °FScattered clouds.6 mph84%30.07 "HgN/A
8:45 am79 °FScattered clouds.8 mph89%30.04 "HgN/A
8:15 am79 °FScattered clouds.9 mph89%30.04 "HgN/A
7:45 am77 °FScattered clouds.9 mph94%30.04 "HgN/A
7:15 am77 °FPartly sunny.8 mph94%30.04 "HgN/A
6:45 am77 °FPassing clouds.8 mph89%30.04 "HgN/A
6:15 am77 °FPassing clouds.8 mph89%30.04 "HgN/A
5:45 am77 °FPassing clouds.8 mph89%30.04 "HgN/A
5:15 am77 °FPassing clouds.7 mph89%30.04 "HgN/A
4:45 am77 °FPassing clouds.9 mph89%30.04 "HgN/A
4:15 am77 °FPassing clouds.6 mph89%30.04 "HgN/A
4:08 am77 °FPassing clouds.8 mph89%30.04 "HgN/A
3:15 am77 °FPassing clouds.8 mph89%30.04 "HgN/A
2:45 am77 °FPassing clouds.7 mph89%30.07 "HgN/A
2:15 am75 °FPassing clouds.8 mph94%30.07 "HgN/A
1:45 am75 °FPassing clouds.8 mph89%30.07 "HgN/A
1:15 am75 °FClear.8 mph89%30.07 "Hg10 mi
12:45 am75 °FClear.7 mph89%30.07 "Hg10 mi
12:15 am75 °FPassing clouds.7 mph89%30.07 "HgN/A
11:45 pm
Sun, Sep 22
77 °FPassing clouds.7 mph83%30.09 "HgN/A
11:15 pm77 °FPassing clouds.8 mph83%30.09 "HgN/A
10:45 pm77 °FPassing clouds.8 mph83%30.09 "HgN/A
10:15 pm77 °FPassing clouds.9 mph83%30.09 "HgN/A
9:45 pm77 °FPassing clouds.9 mph79%30.09 "HgN/A
9:15 pm77 °FPassing clouds.9 mph79%30.09 "HgN/A
8:45 pm77 °FPassing clouds.8 mph79%30.09 "HgN/A
8:15 pm77 °FPassing clouds.9 mph79%30.07 "HgN/A
7:45 pm77 °FPassing clouds.13 mph79%30.07 "HgN/A
7:15 pm77 °FPassing clouds.12 mph79%30.07 "HgN/A
6:45 pm79 °FPassing clouds.12 mph74%30.07 "HgN/A
6:15 pm79 °FPassing clouds.15 mph74%30.07 "HgN/A
5:45 pm79 °FPassing clouds.17 mph70%30.07 "HgN/A
5:15 pm79 °FPassing clouds.16 mph74%30.07 "HgN/A
4:45 pm81 °FPassing clouds.15 mph66%30.07 "HgN/A
4:15 pm81 °FPassing clouds.17 mph66%30.07 "HgN/A
3:45 pm81 °FPassing clouds.17 mph70%30.07 "HgN/A
3:15 pm81 °FPassing clouds.17 mph66%30.07 "HgN/A
2:45 pm81 °FPassing clouds.15 mph66%30.07 "HgN/A
2:15 pm81 °FPassing clouds.15 mph66%30.07 "HgN/A
Weather by CustomWeather, © 2019

See weather overview